Regional Weather Roundup
Issued by NWS

Home | Current Version | Previous Version | Text Only | Print | Product List | Glossary On
Versions: 1 2 3 4 5 6 7 8 9 10 11 12 13 14 15 16 17 18 19 20 21 22 23 24 25 26 27 28 29 30 31 32 33 34 35 36 37 38 39 40 41 42 43 44 45 46 47 48 49 50
000
ASUS43 KBIS 271920
RWRND

NORTH DAKOTA REGIONAL WEATHER ROUNDUP
NATIONAL WEATHER SERVICE BISMARCK ND
100 PM CST THU NOV 27 2014

NOTE: "FAIR" INDICATES FEW OR NO CLOUDS BELOW 12,000 FEET WITH NO
SIGNIFICANT WEATHER AND/OR OBSTRUCTIONS TO VISIBILITY.


NDZ001>003-009>011-017-272000-
NORTHWEST NORTH DAKOTA

CITY           SKY/WX    TMP DP  RH WIND       PRES   REMARKS
WILLISTON      SNOW      20  17  88 E9        29.95F VSB 1/2 WCI   9
MINOT          CLOUDY    12   5  73 SE12      30.10F WCI  -2
MINOT AFB      PTSUNNY   12   9  90 SE14      30.11F WCI  -4
$$

NDZ018>021-031>035-040>046-272000-
SOUTHWEST NORTH DAKOTA

CITY           SKY/WX    TMP DP  RH WIND       PRES   REMARKS
BISMARCK       CLOUDY     9   4  80 SE16      30.16F WCI  -8
DICKINSON      CLOUDY    20  16  84 S22       29.92F WCI   3
GARRISON         N/A     11   8  88 SE12      30.10F WCI  -3
HETTINGER ARPT CLOUDY    20  16  84 S17       30.00F WCI   5
$$

NDZ004>008-012>016-024-026-027-054-272000-
NORTHEAST NORTH DAKOTA

CITY           SKY/WX    TMP DP  RH WIND       PRES   REMARKS
GRAND FORKS    CLOUDY     5  -4  66 S12       30.38F WCI -11
GRND FRKS AFB  SUNNY      6  -5  60 S13       30.37F WCI -10
DEVILS LAKE    MOSUNNY    5  -9  51 S15       30.22F WCI -13
$$

NDZ022-023-025-028>030-036>039-047>053-272000-
SOUTHEAST NORTH DAKOTA

CITY           SKY/WX    TMP DP  RH WIND       PRES   REMARKS
FARGO          SUNNY      4  -5  66 S8        30.42F WCI  -9
JAMESTOWN      CLOUDY     2  -5  72 S16       30.27F WCI -18
$$



USA.gov is the U.S. government's official web portal to all federal, state and local government web resources and services.